Change the Weather History Date:

Thursday, February 20, 2014

  Actual Average Record
Temperature  
Mean Temperature 10 °F -  
Max Temperature 23 °F - - ()
Min Temperature -2 °F - - ()
Degree Days  
Heating Degree Days 54    
Moisture  
Dew Point 16 °F    
Average Humidity 91    
Maximum Humidity 96    
Minimum Humidity 82    
Precipitation  
Precipitation 0.00 in - - ()
Sea Level Pressure  
Sea Level Pressure 29.90 in    
Wind  
Wind Speed 6 mph (WNW)    
Max Wind Speed 8 mph    
Max Gust Speed -    
Visibility 7 miles    
Events Snow    
T = Trace of Precipitation, MM = Missing Value Source: NWS Daily Summary

Daily Weather History Graph

Daily Weather History Graph

Search for Another Location

Airport or City:

Trip Planner

Search our weather history database for the weather conditions in past years. The results will help you decide how hot, cold, wet, or windy it might be!

Date:

Astronomy

Feb. 20, 2014 Rise Set
Actual Time 8:21 AM AKST 5:58 PM AKST
Civil Twilight 7:37 AM AKST 6:42 PM AKST
Nautical Twilight 6:47 AM AKST 7:31 PM AKST
Astronomical Twilight 5:58 AM AKST 8:21 PM AKST
Moon 12:31 AM AKST (2/20) 9:33 AM AKST (2/20)
Length of Visible Light 11h 04m
Length of Day
9h 36m
Waning Gibbous, 69% of the Moon is Illuminated
Feb 20
Waning Gibbous
Feb 22
Last Quarter
Feb 28
New
Mar 8
First Quarter
Mar 16
Full

Hourly Weather History & Observations

Time (AKST) Temp. Windchill Dew Point Humidity Pressure Visibility Wind Dir Wind Speed Gust Speed Precip Events Conditions
12:10 AM 21.9 °F 13.4 °F 19.9 °F 92% 29.71 in 2.5 mi West 6.9 mph - 0.00 in Snow Light Snow
12:23 AM 21.9 °F 13.4 °F 19.9 °F 92% 29.71 in 1.2 mi WNW 6.9 mph - 0.00 in Snow Light Snow
12:36 AM 21.9 °F 13.4 °F 21.0 °F 96% 29.72 in 1.2 mi West 6.9 mph - 0.00 in Snow Light Snow
12:53 AM 21.9 °F 13.4 °F 19.9 °F 92% 29.73 in 1.5 mi WNW 6.9 mph - 0.00 in Snow Light Snow
1:28 AM 21.9 °F 12.5 °F 19.9 °F 92% 29.74 in 2.5 mi West 8.1 mph - 0.00 in Snow Light Snow
1:32 AM 21.9 °F 12.5 °F 19.9 °F 92% 29.74 in 3.0 mi West 8.1 mph - 0.00 in Snow Light Snow
1:53 AM 21.9 °F 13.4 °F 19.9 °F 92% 29.75 in 4.0 mi West 6.9 mph - 0.00 in Snow Light Snow
2:28 AM 21.9 °F 12.5 °F 19.9 °F 92% 29.76 in 4.0 mi West 8.1 mph - 0.00 in Snow Light Snow
3:16 AM 21.9 °F 13.4 °F 19.9 °F 92% 29.77 in 1.8 mi WNW 6.9 mph - 0.00 in Snow Light Snow
3:43 AM 21.9 °F 13.4 °F 19.9 °F 92% 29.78 in 2.0 mi WNW 6.9 mph - 0.00 in Snow Light Snow
3:53 AM 21.0 °F 12.4 °F 19.9 °F 96% 29.79 in 2.5 mi West 6.9 mph - 0.00 in Snow Light Snow
4:01 AM 21.0 °F 12.4 °F 19.9 °F 96% 29.79 in 4.0 mi WNW 6.9 mph - 0.00 in Snow Light Snow
4:13 AM 21.0 °F 13.4 °F 19.9 °F 96% 29.79 in 5.0 mi WNW 5.8 mph - 0.00 in Snow Light Snow
4:48 AM 21.2 °F 11.7 °F 19.4 °F 93% 29.80 in 8.0 mi West 8.1 mph - 0.00 in Snow Light Snow
4:53 AM 21.0 °F 11.4 °F 19.0 °F 92% 29.81 in 8.0 mi West 8.1 mph - 0.00 in   Overcast
5:53 AM 21.0 °F 13.4 °F 19.0 °F 92% 29.82 in 10.0 mi West 5.8 mph - 0.00 in   Overcast
6:53 AM 19.9 °F 11.1 °F 18.0 °F 92% 29.85 in 10.0 mi West 6.9 mph - 0.00 in   Overcast
7:02 AM 19.9 °F 12.1 °F 18.0 °F 92% 29.84 in 10.0 mi West 5.8 mph - N/A   Overcast
7:53 AM 19.0 °F 10.0 °F 18.0 °F 96% 29.88 in 10.0 mi West 6.9 mph - N/A   Overcast
8:53 AM 19.0 °F 11.1 °F 17.1 °F 92% 29.91 in 9.0 mi West 5.8 mph - N/A   Overcast
9:53 AM 19.0 °F 12.3 °F 16.0 °F 88% 29.93 in 9.0 mi WNW 4.6 mph - 0.00 in   Overcast
10:53 AM 19.0 °F 10.0 °F 16.0 °F 88% 29.94 in 10.0 mi WNW 6.9 mph - N/A   Overcast
11:53 AM 21.0 °F 13.4 °F 18.0 °F 88% 29.97 in 10.0 mi NW 5.8 mph - N/A   Overcast
12:53 PM 21.9 °F 13.4 °F 18.0 °F 85% 29.99 in 10.0 mi NW 6.9 mph - N/A   Overcast
1:53 PM 21.9 °F 15.7 °F 17.1 °F 82% 30.01 in 10.0 mi NW 4.6 mph - N/A   Overcast
2:53 PM 21.9 °F 15.7 °F 18.0 °F 85% 30.02 in 10.0 mi WNW 4.6 mph - N/A   Overcast
3:53 PM 23.0 °F 18.4 °F 19.0 °F 85% 30.03 in 10.0 mi WNW 3.5 mph - N/A   Overcast
4:53 PM 21.9 °F 17.2 °F 18.0 °F 85% 30.04 in 10.0 mi WNW 3.5 mph - N/A   Overcast
5:53 PM 15.1 °F - 14.0 °F 95% 30.06 in 10.0 mi Calm Calm - N/A   Partly Cloudy
6:53 PM 9.0 °F - 8.1 °F 96% 30.07 in 10.0 mi Calm Calm - N/A   Partly Cloudy
7:53 PM 7.0 °F - 5.0 °F 92% 30.09 in 10.0 mi Calm Calm - N/A   Clear
8:53 PM 3.9 °F - 1.9 °F 91% 30.10 in 10.0 mi Calm Calm - N/A   Clear
9:53 PM 1.9 °F - -0.9 °F 88% 30.12 in 10.0 mi Calm Calm - N/A   Clear
10:53 PM -2.0 °F - -5.1 °F 87% 30.14 in 10.0 mi Calm Calm - N/A   Clear
11:53 PM -2.0 °F - -4.0 °F 91% 30.15 in 10.0 mi Calm Calm - N/A   Clear